| time (UTC) | temp C | wind direction | speed KPH | gust KPH | rain 1hr cm | rain 24hr cm | rain mn cm | humidity % | barometer mb |
| 20260503192721 | 14 | 344 | 11.3 | 14.5 | 0.00 | 0.00 | 0.00 | 41 | 1018.4 |
| 20260503192216 | 14 | 296 | 9.7 | 12.9 | 0.00 | 0.00 | 0.00 | 40 | 1018.5 |
| 20260503191713 | 14 | 332 | 6.4 | 12.9 | 0.00 | 0.00 | 0.00 | 39 | 1018.5 |
| 20260503191210 | 13 | 256 | 6.4 | 6.4 | 0.00 | 0.00 | 0.00 | 41 | 1018.6 |
| 20260503190707 | 13 | 322 | 4.8 | 14.5 | 0.00 | 0.00 | 0.00 | 43 | 1018.7 |
| 20260503190203 | 12 | 278 | 9.7 | 12.9 | 0.00 | 0.00 | 0.00 | 39 | 1018.6 |
| 20260503185701 | 12 | 281 | 3.2 | 4.8 | 0.00 | 0.00 | 0.00 | 46 | 1018.7 |
| 20260503185156 | 12 | 322 | 8.0 | 16.1 | 0.00 | 0.00 | 0.00 | 43 | 1018.7 |
| 20260503184651 | 12 | 353 | 6.4 | 11.3 | 0.00 | 0.00 | 0.00 | 43 | 1019.2 |
| 20260503184148 | 13 | 346 | 6.4 | 12.9 | 0.00 | 0.00 | 0.00 | 40 | 1019.1 |
| 20260503183644 | 13 | 278 | 11.3 | 14.5 | 0.00 | 0.00 | 0.00 | 43 | 1018.9 |
| 20260503183142 | 13 | 123 | 4.8 | 9.7 | 0.00 | 0.00 | 0.00 | 35 | 1019.0 |
| 20260503182640 | 12 | 337 | 9.7 | 14.5 | 0.00 | 0.00 | 0.00 | 40 | 1019.2 |
| 20260503182139 | 13 | 221 | 11.3 | 17.7 | 0.00 | 0.00 | 0.00 | 41 | 1019.1 |
| 20260503181634 | 13 | 346 | 4.8 | 11.3 | 0.00 | 0.00 | 0.00 | 44 | 1019.1 |
| 20260503181131 | 12 | 273 | 4.8 | 9.7 | 0.00 | 0.00 | 0.00 | 45 | 1019.2 |
| 20260503180628 | 12 | 268 | 4.8 | 6.4 | 0.00 | 0.00 | 0.00 | 39 | 1019.3 |
| 20260503180126 | 12 | 324 | 9.7 | 14.5 | 0.00 | 0.00 | 0.00 | 46 | 1019.1 |
| 20260503175622 | 12 | 299 | 9.7 | 14.5 | 0.00 | 0.00 | 0.00 | 44 | 1019.4 |
| 20260503175119 | 12 | 311 | 6.4 | 16.1 | 0.00 | 0.00 | 0.00 | 43 | 1019.1 |
| 20260503174616 | 12 | 307 | 6.4 | 12.9 | 0.00 | 0.00 | 0.00 | 44 | 1019.3 |
| 20260503174113 | 11 | 307 | 8.0 | 16.1 | 0.00 | 0.00 | 0.00 | 44 | 1019.0 |
| 20260503173608 | 12 | 269 | 6.4 | 12.9 | 0.00 | 0.00 | 0.00 | 45 | 1019.3 |
| 20260503173105 | 12 | 339 | 3.2 | 4.8 | 0.00 | 0.00 | 0.00 | 43 | 1019.5 |
| 20260503172602 | 12 | 318 | 4.8 | 11.3 | 0.00 | 0.00 | 0.00 | 42 | 1019.4 |
| 20260503172100 | 11 | 289 | 3.2 | 4.8 | 0.00 | 0.00 | 0.00 | 45 | 1019.5 |
| 20260503171555 | 11 | 260 | 4.8 | 12.9 | 0.00 | 0.00 | 0.00 | 45 | 1019.8 |
| 20260503171054 | 11 | 275 | 6.4 | 12.9 | 0.00 | 0.00 | 0.00 | 42 | 1019.9 |
| 20260503170549 | 10 | 297 | 4.8 | 9.7 | 0.00 | 0.00 | 0.00 | 49 | 1019.8 |
| 20260503150942 | 9 | 4 | 3.2 | 6.4 | 0.00 | 0.00 | 0.00 | 52 | 1020.8 |
| 20260503150439 | 8 | 263 | 1.6 | 4.8 | 0.00 | 0.00 | 0.00 | 51 | 1020.8 |
| 20260503131332 | 5 | 317 | 3.2 | 4.8 | 0.00 | 0.00 | 0.00 | 66 | 1020.6 |
| 20260503130829 | 4 | 333 | 4.8 | 4.8 | 0.00 | 0.00 | 0.00 | 68 | 1020.4 |
| 20260503130327 | 4 | 332 | 3.2 | 9.7 | 0.00 | 0.00 | 0.00 | 68 | 1020.6 |
| 20260503110720 | 0 | 206 | 0.0 | 0.0 | 0.00 | 0.00 | 0.00 | 91 | 1019.5 |
| 20260503110217 | 0 | 206 | 0.0 | 0.0 | 0.00 | 0.00 | 0.00 | 91 | 1019.4 |
| 20260503100144 | 0 | 206 | 0.0 | 0.0 | 0.00 | 0.00 | 0.00 | 89 | 1018.7 |
| 20260503081538 | 2 | 206 | 0.0 | 0.0 | 0.00 | 0.00 | 0.00 | 82 | 1018.1 |
| 20260503081036 | 2 | 206 | 0.0 | 0.0 | 0.00 | 0.00 | 0.00 | 81 | 1018.0 |
| 20260503080532 | 2 | 206 | 0.0 | 0.0 | 0.00 | 0.00 | 0.00 | 80 | 1018.1 |
| 20260503072506 | 3 | 319 | 1.6 | 1.6 | 0.00 | 0.00 | 0.00 | 77 | 1017.7 |
| 20260503072003 | 3 | 352 | 0.0 | 0.0 | 0.00 | 0.00 | 0.00 | 76 | 1017.5 |
| 20260503071500 | 3 | 314 | 1.6 | 4.8 | 0.00 | 0.00 | 0.00 | 75 | 1017.6 |
| 20260503070955 | 3 | 351 | 3.2 | 4.8 | 0.00 | 0.00 | 0.00 | 75 | 1017.5 |
| 20260503070453 | 3 | 275 | 0.0 | 4.8 | 0.00 | 0.00 | 0.00 | 75 | 1017.6 |
| 20260503054905 | 3 | 231 | 0.0 | 0.0 | 0.00 | 0.00 | 0.00 | 76 | 1017.7 |
| 20260503054401 | 3 | 231 | 0.0 | 0.0 | 0.00 | 0.00 | 0.00 | 78 | 1017.5 |
| 20260503053900 | 3 | 231 | 0.0 | 0.0 | 0.00 | 0.00 | 0.00 | 80 | 1017.6 |
| 20260503053358 | 3 | 231 | 0.0 | 0.0 | 0.00 | 0.00 | 0.00 | 76 | 1017.5 |
| 20260503052853 | 3 | 231 | 0.0 | 0.0 | 0.00 | 0.00 | 0.00 | 77 | 1017.5 |
| 20260503052350 | 3 | 231 | 0.0 | 0.0 | 0.00 | 0.00 | 0.00 | 75 | 1017.5 |
| 20260503051847 | 3 | 231 | 0.0 | 0.0 | 0.00 | 0.00 | 0.00 | 74 | 1017.3 |
| 20260503051343 | 3 | 141 | 0.0 | 0.0 | 0.00 | 0.00 | 0.00 | 76 | 1017.3 |
| 20260503050840 | 3 | 141 | 0.0 | 0.0 | 0.00 | 0.00 | 0.00 | 75 | 1017.5 |
| 20260503050336 | 3 | 141 | 0.0 | 0.0 | 0.00 | 0.00 | 0.00 | 74 | 1017.3 |
| 20260503045834 | 3 | 149 | 0.0 | 0.0 | 0.00 | 0.00 | 0.00 | 75 | 1017.5 |
| 20260503045332 | 3 | 174 | 0.0 | 0.0 | 0.00 | 0.00 | 0.00 | 73 | 1017.7 |
| 20260503044828 | 3 | 62 | 0.0 | 1.6 | 0.00 | 0.00 | 0.00 | 74 | 1017.6 |
| 20260503044325 | 3 | 286 | 1.6 | 1.6 | 0.00 | 0.00 | 0.00 | 74 | 1017.6 |
| 20260503043822 | 3 | 321 | 1.6 | 3.2 | 0.00 | 0.00 | 0.00 | 73 | 1017.7 |
| 20260503043319 | 3 | 19 | 0.0 | 1.6 | 0.00 | 0.00 | 0.00 | 75 | 1017.7 |
| 20260503042815 | 3 | 346 | 0.0 | 0.0 | 0.00 | 0.00 | 0.00 | 74 | 1017.7 |
| 20260503042312 | 3 | 254 | 0.0 | 1.6 | 0.00 | 0.00 | 0.00 | 74 | 1017.7 |
| 20260503041808 | 3 | 239 | 1.6 | 4.8 | 0.00 | 0.00 | 0.00 | 73 | 1017.7 |
| 20260503041306 | 3 | 186 | 0.0 | 0.0 | 0.00 | 0.00 | 0.00 | 74 | 1017.7 |
| 20260503040803 | 3 | 105 | 0.0 | 0.0 | 0.00 | 0.00 | 0.00 | 73 | 1017.7 |
| 20260503040300 | 4 | 58 | 0.0 | 0.0 | 0.00 | 0.00 | 0.00 | 74 | 1017.7 |
| 20260503035757 | 4 | 176 | 0.0 | 0.0 | 0.00 | 0.00 | 0.00 | 75 | 1017.6 |
| 20260503035254 | 4 | 299 | 0.0 | 0.0 | 0.00 | 0.00 | 0.00 | 74 | 1017.8 |
| 20260503034751 | 4 | 159 | 0.0 | 0.0 | 0.00 | 0.00 | 0.00 | 73 | 1017.5 |
| 20260503034248 | 4 | 244 | 0.0 | 0.0 | 0.00 | 0.00 | 0.00 | 72 | 1017.8 |
| 20260503033746 | 4 | 293 | 0.0 | 0.0 | 0.00 | 0.00 | 0.00 | 72 | 1017.7 |
| 20260503033243 | 4 | 340 | 0.0 | 0.0 | 0.00 | 0.00 | 0.00 | 73 | 1017.6 |
| 20260503032741 | 4 | 334 | 0.0 | 1.6 | 0.00 | 0.00 | 0.00 | 73 | 1017.6 |
| 20260503032240 | 4 | 261 | 0.0 | 1.6 | 0.00 | 0.00 | 0.00 | 75 | 1017.6 |
| 20260503031737 | 4 | 305 | 0.0 | 0.0 | 0.00 | 0.00 | 0.00 | 72 | 1017.9 |
| 20260503031235 | 4 | 30 | 0.0 | 0.0 | 0.00 | 0.00 | 0.00 | 72 | 1017.8 |
| 20260503030731 | 4 | 336 | 1.6 | 3.2 | 0.00 | 0.00 | 0.00 | 72 | 1017.6 |
| 20260503030227 | 4 | 24 | 0.0 | 0.0 | 0.00 | 0.00 | 0.00 | 71 | 1017.7 |
| 20260503025724 | 4 | 307 | 1.6 | 3.2 | 0.00 | 0.00 | 0.00 | 71 | 1017.6 |
| 20260503025222 | 5 | 328 | 1.6 | 3.2 | 0.00 | 0.00 | 0.00 | 72 | 1017.6 |
| 20260503024718 | 5 | 305 | 3.2 | 4.8 | 0.00 | 0.00 | 0.00 | 70 | 1017.6 |
| 20260503024216 | 5 | 2 | 1.6 | 4.8 | 0.00 | 0.00 | 0.00 | 70 | 1017.6 |
| 20260503023712 | 5 | 349 | 1.6 | 6.4 | 0.00 | 0.00 | 0.00 | 71 | 1017.7 |
| 20260503023204 | 5 | 154 | 0.0 | 1.6 | 0.00 | 0.00 | 0.00 | 71 | 1017.8 |
| 20260503022700 | 5 | 1 | 1.6 | 6.4 | 0.00 | 0.00 | 0.00 | 70 | 1017.8 |
| 20260503022159 | 5 | 314 | 4.8 | 4.8 | 0.00 | 0.00 | 0.00 | 71 | 1017.8 |
| 20260503021657 | 5 | 345 | 3.2 | 4.8 | 0.00 | 0.00 | 0.00 | 70 | 1017.7 |
| 20260503021153 | 5 | 309 | 1.6 | 3.2 | 0.00 | 0.00 | 0.00 | 70 | 1017.9 |
| 20260503020651 | 5 | 358 | 6.4 | 11.3 | 0.00 | 0.00 | 0.00 | 70 | 1017.5 |
| 20260503020148 | 5 | 329 | 3.2 | 6.4 | 0.00 | 0.00 | 0.00 | 70 | 1017.8 |
| 20260503015645 | 5 | 334 | 3.2 | 4.8 | 0.00 | 0.00 | 0.00 | 69 | 1017.6 |
| 20260503015142 | 5 | 6 | 0.0 | 4.8 | 0.00 | 0.00 | 0.00 | 70 | 1017.6 |
| 20260503014637 | 5 | 318 | 4.8 | 11.3 | 0.00 | 0.00 | 0.00 | 69 | 1017.6 |
| 20260503014135 | 6 | 321 | 6.4 | 9.7 | 0.00 | 0.00 | 0.00 | 69 | 1017.3 |
| 20260503013633 | 6 | 321 | 3.2 | 4.8 | 0.00 | 0.00 | 0.00 | 69 | 1017.3 |
| 20260503013131 | 6 | 318 | 3.2 | 4.8 | 0.00 | 0.00 | 0.00 | 69 | 1017.5 |
| 20260503012627 | 6 | 12 | 4.8 | 6.4 | 0.00 | 0.00 | 0.00 | 69 | 1017.3 |
| 20260503012124 | 6 | 344 | 4.8 | 11.3 | 0.00 | 0.00 | 0.00 | 69 | 1017.2 |
| 20260503011621 | 6 | 349 | 3.2 | 6.4 | 0.00 | 0.00 | 0.00 | 69 | 1017.0 |
| 20260503011118 | 6 | 340 | 3.2 | 3.2 | 0.00 | 0.00 | 0.00 | 69 | 1017.1 |
| 20260503010614 | 6 | 271 | 3.2 | 4.8 | 0.00 | 0.00 | 0.00 | 69 | 1017.2 |
| 20260503010112 | 6 | 319 | 0.0 | 3.2 | 0.00 | 0.00 | 0.00 | 66 | 1016.8 |
| 20260503005608 | 6 | 341 | 3.2 | 4.8 | 0.00 | 0.00 | 0.00 | 66 | 1016.9 |
| 20260503005106 | 6 | 26 | 0.0 | 3.2 | 0.00 | 0.00 | 0.00 | 65 | 1016.8 |
| 20260503004602 | 6 | 347 | 1.6 | 3.2 | 0.00 | 0.00 | 0.00 | 66 | 1016.7 |
| 20260503004101 | 6 | 335 | 1.6 | 6.4 | 0.00 | 0.00 | 0.00 | 66 | 1016.7 |
| 20260503003556 | 6 | 347 | 0.0 | 6.4 | 0.00 | 0.00 | 0.00 | 66 | 1016.5 |
| 20260503003054 | 7 | 318 | 6.4 | 12.9 | 0.00 | 0.00 | 0.00 | 64 | 1016.5 |
| 20260503002550 | 7 | 327 | 8.0 | 12.9 | 0.00 | 0.00 | 0.00 | 62 | 1016.2 |
| 20260503002048 | 7 | 0 | 0.0 | 4.8 | 0.00 | 0.00 | 0.00 | 61 | 1016.2 |
| 20260503001543 | 7 | 3 | 0.0 | 1.6 | 0.00 | 0.00 | 0.00 | 58 | 1016.0 |
| 20260503001041 | 7 | 315 | 3.2 | 9.7 | 0.00 | 0.00 | 0.00 | 57 | 1016.3 |
| 20260503000538 | 7 | 336 | 11.3 | 16.1 | 0.00 | 0.00 | 0.00 | 55 | 1016.1 |
| 20260503000035 | 7 | 294 | 4.8 | 9.7 | 0.00 | 0.00 | 0.00 | 55 | 1016.1 |
| 20260502235532 | 7 | 309 | 4.8 | 11.3 | 0.00 | 0.00 | 0.00 | 56 | 1015.9 |
| 20260502235030 | 8 | 9 | 6.4 | 12.9 | 0.00 | 0.00 | 0.00 | 54 | 1016.0 |
| 20260502234526 | 8 | 319 | 4.8 | 6.4 | 0.00 | 0.00 | 0.00 | 57 | 1015.9 |
| 20260502234023 | 8 | 1 | 3.2 | 9.7 | 0.00 | 0.00 | 0.00 | 54 | 1015.7 |
| 20260502233518 | 8 | 307 | 4.8 | 6.4 | 0.00 | 0.00 | 0.00 | 53 | 1015.8 |
| 20260502233016 | 8 | 255 | 1.6 | 4.8 | 0.00 | 0.00 | 0.00 | 52 | 1015.5 |
| 20260502232511 | 8 | 324 | 4.8 | 9.7 | 0.00 | 0.00 | 0.00 | 50 | 1015.6 |
| 20260502232009 | 8 | 309 | 6.4 | 9.7 | 0.00 | 0.00 | 0.00 | 50 | 1015.6 |
| 20260502231506 | 8 | 285 | 1.6 | 9.7 | 0.00 | 0.00 | 0.00 | 49 | 1015.5 |
| 20260502231004 | 8 | 343 | 6.4 | 11.3 | 0.00 | 0.00 | 0.00 | 51 | 1015.5 |
| 20260502230502 | 8 | 301 | 3.2 | 9.7 | 0.00 | 0.00 | 0.00 | 50 | 1015.3 |
| 20260502230000 | 8 | 332 | 3.2 | 11.3 | 0.00 | 0.00 | 0.00 | 49 | 1015.3 |
| 20260502225455 | 8 | 324 | 4.8 | 4.8 | 0.00 | 0.00 | 0.00 | 51 | 1015.3 |
| 20260502224952 | 8 | 298 | 4.8 | 9.7 | 0.00 | 0.00 | 0.00 | 50 | 1015.4 |
| 20260502224448 | 8 | 318 | 3.2 | 11.3 | 0.00 | 0.00 | 0.00 | 47 | 1015.1 |
| 20260502223945 | 8 | 355 | 4.8 | 4.8 | 0.00 | 0.00 | 0.00 | 48 | 1015.3 |
| 20260502223443 | 8 | 270 | 3.2 | 9.7 | 0.00 | 0.00 | 0.00 | 50 | 1015.4 |
| 20260502222941 | 9 | 329 | 8.0 | 11.3 | 0.00 | 0.00 | 0.00 | 48 | 1015.3 |
| 20260502222438 | 9 | 316 | 6.4 | 11.3 | 0.00 | 0.00 | 0.00 | 47 | 1015.0 |
| 20260502221934 | 9 | 337 | 6.4 | 11.3 | 0.00 | 0.00 | 0.00 | 46 | 1015.3 |
| 20260502221431 | 9 | 353 | 1.6 | 6.4 | 0.00 | 0.00 | 0.00 | 51 | 1015.1 |
| 20260502220928 | 9 | 325 | 9.7 | 11.3 | 0.00 | 0.00 | 0.00 | 46 | 1015.1 |
| 20260502220423 | 9 | 279 | 6.4 | 11.3 | 0.00 | 0.00 | 0.00 | 45 | 1015.3 |
| 20260502215920 | 9 | 339 | 4.8 | 9.7 | 0.00 | 0.00 | 0.00 | 45 | 1015.1 |
| 20260502215418 | 9 | 334 | 6.4 | 9.7 | 0.00 | 0.00 | 0.00 | 49 | 1015.0 |
| 20260502214914 | 9 | 336 | 3.2 | 6.4 | 0.00 | 0.00 | 0.00 | 47 | 1015.0 |
| 20260502214411 | 10 | 353 | 6.4 | 11.3 | 0.00 | 0.00 | 0.00 | 47 | 1014.9 |
| 20260502213908 | 10 | 251 | 6.4 | 14.5 | 0.00 | 0.00 | 0.00 | 48 | 1015.0 |
| 20260502213405 | 10 | 278 | 6.4 | 11.3 | 0.00 | 0.00 | 0.00 | 50 | 1014.9 |
| 20260502212904 | 9 | 342 | 3.2 | 9.7 | 0.00 | 0.00 | 0.00 | 49 | 1015.1 |
| 20260502212402 | 9 | 12 | 0.0 | 12.9 | 0.00 | 0.00 | 0.00 | 49 | 1015.0 |
| 20260502211859 | 9 | 297 | 6.4 | 14.5 | 0.00 | 0.00 | 0.00 | 45 | 1015.0 |
| 20260502211354 | 10 | 285 | 6.4 | 11.3 | 0.00 | 0.00 | 0.00 | 49 | 1015.3 |
| 20260502210852 | 10 | 295 | 6.4 | 12.9 | 0.00 | 0.00 | 0.00 | 46 | 1014.9 |
| 20260502210349 | 11 | 331 | 9.7 | 16.1 | 0.00 | 0.00 | 0.00 | 43 | 1014.9 |
| 20260502205846 | 10 | 357 | 1.6 | 4.8 | 0.00 | 0.00 | 0.00 | 46 | 1014.8 |
| 20260502205342 | 10 | 337 | 6.4 | 11.3 | 0.00 | 0.00 | 0.00 | 49 | 1015.1 |
| 20260502204839 | 10 | 300 | 3.2 | 6.4 | 0.00 | 0.00 | 0.00 | 48 | 1014.9 |
| 20260502204336 | 10 | 336 | 4.8 | 9.7 | 0.00 | 0.00 | 0.00 | 47 | 1015.3 |
| 20260502203834 | 10 | 300 | 6.4 | 11.3 | 0.00 | 0.00 | 0.00 | 50 | 1015.0 |
| 20260502203331 | 10 | 308 | 6.4 | 14.5 | 0.00 | 0.00 | 0.00 | 46 | 1015.0 |
| 20260502202831 | 10 | 324 | 8.0 | 12.9 | 0.00 | 0.00 | 0.00 | 46 | 1015.0 |
| 20260502202329 | 10 | 310 | 4.8 | 6.4 | 0.00 | 0.00 | 0.00 | 44 | 1015.3 |
| 20260502201827 | 10 | 324 | 8.0 | 11.3 | 0.00 | 0.00 | 0.00 | 50 | 1015.0 |
| 20260502201323 | 10 | 307 | 6.4 | 9.7 | 0.00 | 0.00 | 0.00 | 46 | 1015.0 |
| 20260502200819 | 10 | 289 | 3.2 | 11.3 | 0.00 | 0.00 | 0.00 | 44 | 1015.1 |
| 20260502200315 | 10 | 226 | 1.6 | 9.7 | 0.00 | 0.00 | 0.00 | 47 | 1015.3 |
| 20260502195814 | 10 | 285 | 4.8 | 6.4 | 0.00 | 0.00 | 0.00 | 44 | 1015.3 |
| 20260502195310 | 10 | 312 | 3.2 | 14.5 | 0.00 | 0.00 | 0.00 | 44 | 1015.5 |
| 20260502194806 | 10 | 3 | 9.7 | 12.9 | 0.00 | 0.00 | 0.00 | 48 | 1015.4 |
| 20260502194304 | 10 | 320 | 3.2 | 6.4 | 0.00 | 0.00 | 0.00 | 44 | 1015.4 |
| 20260502193759 | 10 | 329 | 4.8 | 6.4 | 0.00 | 0.00 | 0.00 | 46 | 1015.5 |
| 20260502193257 | 10 | 338 | 3.2 | 9.7 | 0.00 | 0.00 | 0.00 | 48 | 1015.4 |